LAGEOS 1

Last updated on Fri Oct 11 2024 00:03:25 GMT+0000 (Coordinated Universal Time)

1 08820U 76039A 24284.31016528 .00000013 00000+0 00000+0 0 9991 2 08820 109.8574 328.7361 0043989 73.8219 314.3619 6.38664995873873
UTC large
Height (km)
Speed (km/s)
/
Latitude / Longitude
Inclination (degrees)
Orbital Period (minutes)
Azimuth
Elevation
Range (km)
Doppler Factor

Next 0 passes for location: London (51.5072 / 0.1276)

Sorry there are no passes over London.